Precipitable_Water
1.22 1.25 1.18 1.15 1.10 1.05 1.01 0.97 0.92 0.84 0.79 0.74 0.73 0.67 0.62 0.59 0.58 0.55 0.59 0.59 0.55 0.57 0.59 0.61 0.64 0.68 0.72 0.75 0.78 0.78 0.76 0.77 0.73 0.73 0.68 0.68 0.71 0.74 0.75 0.86 0.94 1.07 1.22
1.23 1.29 1.17 1.10 1.09 1.07 1.01 0.92 0.85 0.76 0.72 0.71 0.66 0.63 0.58 0.56 0.54 0.56 0.55 0.61 0.54 0.51 0.52 0.52 0.51 0.52 0.57 0.62 0.66 0.70 0.74 0.75 0.76 0.74 0.76 0.71 0.68 0.67 0.69 0.75 0.82 0.93 1.09
1.24 1.16 1.14 1.13 1.04 0.97 0.88 0.78 0.75 0.74 0.70 0.64 0.61 0.59 0.57 0.56 0.54 0.57 0.56 0.54 0.54 0.53 0.50 0.50 0.49 0.49 0.48 0.49 0.52 0.59 0.65 0.69 0.72 0.75 0.74 0.77 0.73 0.71 0.66 0.65 0.73 0.79 0.91
1.14 1.08 1.02 0.94 0.83 0.75 0.72 0.71 0.67 0.61 0.60 0.59 0.55 0.53 0.53 0.53 0.49 0.59 0.59 0.55 0.54 0.52 0.54 0.50 0.49 0.47 0.47 0.48 0.49 0.49 0.53 0.61 0.69 0.70 0.74 0.76 0.81 0.78 0.75 0.68 0.65 0.72 0.78
0.91 0.85 0.78 0.73 0.70 0.68 0.67 0.64 0.60 0.58 0.53 0.52 0.48 0.44 0.45 0.47 0.45 0.50 0.58 0.56 0.55 0.52 0.51 0.50 0.45 0.43 0.41 0.43 0.45 0.46 0.49 0.51 0.56 0.65 0.69 0.73 0.78 0.82 0.79 0.75 0.72 0.66 0.70
0.73 0.69 0.69 0.68 0.65 0.61 0.61 0.61 0.57 0.55 0.51 0.49 0.45 0.41 0.44 0.41 0.40 0.46 0.54 0.52 0.49 0.46 0.44 0.43 0.42 0.38 0.34 0.33 0.34 0.37 0.43 0.45 0.50 0.55 0.61 0.65 0.72 0.77 0.82 0.81 0.79 0.71 0.64
0.68 0.67 0.64 0.65 0.64 0.61 0.60 0.58 0.52 0.48 0.45 0.46 0.39 0.33 0.33 0.33 0.44 0.48 0.48 0.46 0.45 0.44 0.42 0.38 0.36 0.35 0.32 0.30 0.30 0.32 0.34 0.37 0.43 0.44 0.49 0.58 0.63 0.68 0.79 0.83 0.82 0.79 0.67
0.69 0.66 0.67 0.63 0.61 0.56 0.55 0.52 0.43 0.37 0.36 0.44 0.41 0.34 0.26 0.27 0.31 0.40 0.45 0.40 0.41 0.43 0.38 0.35 0.35 0.32 0.31 0.32 0.33 0.33 0.35 0.36 0.34 0.36 0.40 0.43 0.54 0.63 0.67 0.78 0.83 0.83 0.80
0.69 0.66 0.64 0.60 0.55 0.50 0.42 0.43 0.42 0.39 0.35 0.37 0.41 0.34 0.26 0.22 0.27 0.31 0.34 0.33 0.37 0.35 0.35 0.31 0.35 0.30 0.29 0.30 0.30 0.35 0.37 0.34 0.32 0.32 0.32 0.38 0.43 0.53 0.64 0.68 0.78 0.84 0.83
0.67 0.63 0.58 0.53 0.46 0.41 0.39 0.41 0.39 0.38 0.37 0.30 0.33 0.34 0.34 0.31 0.26 0.24 0.29 0.33 0.30 0.29 0.29 0.29 0.33 0.29 0.26 0.24 0.25 0.32 0.34 0.29 0.29 0.31 0.32 0.34 0.38 0.47 0.53 0.65 0.72 0.82 0.84
0.60 0.56 0.50 0.44 0.40 0.39 0.40 0.40 0.39 0.37 0.39 0.35 0.33 0.33 0.33 0.29 0.27 0.24 0.21 0.23 0.25 0.25 0.25 0.25 0.26 0.28 0.27 0.25 0.21 0.21 0.28 0.28 0.28 0.28 0.31 0.32 0.37 0.43 0.50 0.54 0.64 0.76 0.86
0.38 0.34 0.34 0.41 0.41 0.40 0.41 0.39 0.39 0.40 0.41 0.39 0.34 0.30 0.26 0.24 0.23 0.23 0.21 0.20 0.19 0.20 0.23 0.25 0.25 0.25 0.26 0.25 0.23 0.22 0.25 0.26 0.26 0.28 0.32 0.36 0.38 0.43 0.48 0.54 0.54 0.65 0.76
0.27 0.26 0.29 0.32 0.39 0.41 0.41 0.46 0.47 0.44 0.36 0.33 0.31 0.26 0.26 0.26 0.27 0.26 0.24 0.21 0.19 0.19 0.21 0.23 0.23 0.24 0.24 0.25 0.25 0.26 0.23 0.20 0.27 0.27 0.32 0.40 0.39 0.39 0.49 0.55 0.60 0.63 0.71
0.28 0.30 0.33 0.36 0.40 0.44 0.45 0.46 0.48 0.39 0.35 0.33 0.29 0.29 0.29 0.28 0.27 0.26 0.24 0.21 0.18 0.18 0.20 0.19 0.21 0.21 0.21 0.22 0.22 0.22 0.23 0.23 0.29 0.31 0.31 0.40 0.41 0.42 0.46 0.53 0.61 0.71 0.79
0.29 0.32 0.39 0.41 0.44 0.47 0.48 0.47 0.40 0.34 0.32 0.29 0.29 0.29 0.27 0.27 0.27 0.24 0.24 0.24 0.22 0.17 0.16 0.17 0.16 0.19 0.21 0.22 0.23 0.24 0.24 0.27 0.26 0.33 0.30 0.39 0.43 0.44 0.47 0.54 0.61 0.59 0.65
0.30 0.32 0.38 0.42 0.47 0.45 0.48 0.41 0.34 0.32 0.29 0.28 0.28 0.28 0.28 0.25 0.25 0.25 0.25 0.24 0.23 0.20 0.16 0.18 0.17 0.20 0.23 0.23 0.27 0.27 0.27 0.25 0.24 0.32 0.31 0.40 0.46 0.44 0.43 0.47 0.62 0.59 0.56
0.30 0.30 0.33 0.38 0.40 0.43 0.37 0.35 0.39 0.30 0.28 0.29 0.30 0.30 0.29 0.28 0.26 0.25 0.24 0.24 0.22 0.21 0.17 0.16 0.20 0.23 0.24 0.25 0.27 0.28 0.29 0.28 0.29 0.37 0.34 0.37 0.46 0.45 0.43 0.44 0.50 0.58 0.63
0.31 0.31 0.32 0.35 0.37 0.37 0.35 0.37 0.34 0.28 0.28 0.29 0.30 0.29 0.28 0.29 0.26 0.24 0.23 0.23 0.22 0.22 0.20 0.17 0.22 0.23 0.24 0.25 0.26 0.27 0.28 0.28 0.36 0.36 0.38 0.36 0.40 0.43 0.43 0.42 0.43 0.52 0.57
0.32 0.34 0.34 0.34 0.34 0.35 0.36 0.32 0.29 0.29 0.30 0.31 0.30 0.30 0.30 0.27 0.23 0.22 0.21 0.21 0.21 0.22 0.23 0.23 0.22 0.24 0.24 0.25 0.25 0.27 0.26 0.29 0.34 0.37 0.34 0.34 0.39 0.40 0.41 0.41 0.41 0.46 0.52
0.32 0.34 0.34 0.34 0.35 0.33 0.32 0.29 0.29 0.30 0.32 0.32 0.32 0.31 0.27 0.22 0.20 0.20 0.19 0.20 0.21 0.22 0.24 0.23 0.22 0.22 0.23 0.23 0.24 0.23 0.26 0.30 0.29 0.34 0.30 0.26 0.31 0.35 0.38 0.41 0.43 0.47 0.50
0.32 0.35 0.31 0.31 0.30 0.29 0.29 0.31 0.32 0.33 0.32 0.30 0.28 0.22 0.19 0.19 0.18 0.19 0.19 0.20 0.21 0.22 0.23 0.22 0.22 0.22 0.23 0.22 0.21 0.22 0.24 0.25 0.29 0.34 0.30 0.27 0.30 0.37 0.39 0.42 0.43 0.45 0.52
0.32 0.34 0.35 0.35 0.33 0.32 0.33 0.33 0.30 0.29 0.27 0.22 0.18 0.18 0.18 0.18 0.19 0.20 0.21 0.22 0.23 0.22 0.23 0.22 0.22 0.22 0.22 0.23 0.23 0.23 0.25 0.24 0.21 0.33 0.30 0.26 0.31 0.29 0.36 0.37 0.41 0.43 0.48
0.32 0.31 0.34 0.36 0.33 0.34 0.29 0.27 0.25 0.23 0.21 0.19 0.18 0.17 0.17 0.18 0.20 0.20 0.21 0.23 0.25 0.25 0.23 0.21 0.22 0.22 0.22 0.23 0.22 0.21 0.21 0.23 0.24 0.26 0.30 0.25 0.26 0.26 0.30 0.32 0.35 0.40 0.46
0.30 0.30 0.31 0.32 0.31 0.28 0.25 0.23 0.22 0.22 0.19 0.18 0.18 0.18 0.18 0.19 0.20 0.21 0.21 0.21 0.21 0.21 0.20 0.23 0.24 0.24 0.25 0.25 0.25 0.24 0.23 0.23 0.24 0.25 0.26 0.22 0.25 0.25 0.30 0.32 0.32 0.35 0.44
0.29 0.29 0.30 0.29 0.27 0.26 0.25 0.22 0.21 0.21 0.20 0.19 0.20 0.19 0.17 0.18 0.19 0.19 0.19 0.19 0.20 0.20 0.22 0.26 0.25 0.25 0.24 0.23 0.24 0.23 0.21 0.20 0.21 0.21 0.23 0.24 0.23 0.24 0.26 0.29 0.31 0.32 0.36
0.28 0.27 0.26 0.26 0.25 0.26 0.23 0.22 0.21 0.21 0.20 0.20 0.20 0.17 0.16 0.17 0.19 0.19 0.19 0.20 0.19 0.19 0.19 0.24 0.24 0.23 0.23 0.24 0.26 0.25 0.23 0.20 0.21 0.20 0.23 0.21 0.21 0.23 0.21 0.25 0.28 0.29 0.34
Wind_Speed
17 16 17 17 19 21 23 26 28 28 28 29 28 28 28 27 27 26 27 26 26 26 25 25 25 25 25 26 26 27 27 27 27 26 25 24 24 25 25 24 25 26 27
19 19 19 21 23 26 28 30 30 30 31 31 31 30 30 30 30 30 30 30 30 29 29 29 29 29 29 29 29 29 30 30 30 30 29 27 26 26 27 27 27 27 28
19 21 21 24 27 30 31 31 32 32 33 32 32 32 33 33 33 33 33 33 34 33 34 34 34 34 34 34 34 33 33 33 33 33 33 32 31 29 29 29 29 29 29
20 23 25 28 30 31 32 32 33 33 34 34 34 34 35 35 36 37 37 36 37 38 38 38 39 39 39 39 39 38 38 37 36 36 36 36 35 34 32 31 31 31 31
23 25 27 28 30 31 32 32 33 34 35 36 36 37 37 38 40 40 40 40 41 41 43 44 44 45 45 45 44 44 43 42 41 41 40 39 39 37 37 35 34 33 33
24 25 27 29 31 32 33 34 36 37 38 38 39 41 40 42 43 42 42 43 44 45 46 47 48 49 50 50 49 49 48 47 46 45 44 43 43 42 40 40 38 36 35
25 27 29 31 33 35 36 38 39 40 40 41 42 42 43 43 42 42 44 45 47 49 50 52 53 53 53 54 53 52 52 51 50 50 49 48 47 45 44 43 43 40 38
28 31 33 34 36 37 39 39 39 39 40 40 42 44 44 44 44 43 47 50 51 53 54 55 56 56 56 56 55 55 54 54 54 53 53 53 52 50 48 48 46 45 42
32 34 36 37 38 39 40 40 39 40 41 42 43 45 45 46 49 51 50 53 53 55 56 56 56 56 56 57 57 56 56 56 56 57 56 56 55 55 53 51 50 50 48
35 37 38 39 41 41 41 40 40 41 42 44 45 46 49 51 52 54 54 54 55 54 55 55 54 54 53 54 54 55 56 57 58 58 59 59 58 58 58 56 53 53 52
38 40 40 41 41 41 40 40 41 43 44 46 48 49 50 50 50 51 53 52 52 50 49 48 47 46 46 46 47 48 51 52 53 56 58 59 60 59 59 59 58 56 55
39 40 41 42 41 41 41 41 42 44 47 48 48 48 49 48 48 48 47 46 45 41 40 40 40 41 41 42 43 44 45 47 49 51 54 57 59 60 59 59 60 60 57
39 40 41 42 41 41 41 43 44 48 47 47 47 48 47 46 44 42 40 38 37 36 36 35 37 38 39 40 41 41 44 45 45 45 46 50 54 57 58 57 57 59 60
40 41 42 42 41 41 42 45 45 47 46 46 46 45 43 40 36 34 33 33 34 34 33 35 35 37 37 37 39 40 40 39 39 39 40 42 45 50 55 56 55 54 56
41 42 42 41 40 41 44 45 46 46 44 44 42 39 36 34 31 30 30 31 33 34 34 36 36 35 36 36 36 36 36 36 36 36 35 36 38 42 47 52 54 54 55
41 42 43 42 42 44 45 47 46 44 41 39 35 34 32 30 30 30 30 32 33 35 38 37 37 36 35 34 34 33 33 34 34 34 32 32 33 35 40 46 50 54 55
42 43 44 44 44 46 48 48 45 40 37 34 33 32 31 30 30 31 32 34 35 37 39 38 37 34 33 33 33 33 32 32 31 31 31 30 30 31 34 40 46 50 52
44 45 45 46 46 48 49 45 38 35 33 32 32 31 31 31 32 33 34 35 37 38 39 38 34 33 33 33 33 32 31 31 31 30 30 31 29 28 30 33 39 45 50
46 46 47 47 48 47 44 39 34 32 31 31 30 31 32 32 33 33 35 36 37 37 35 34 33 33 33 32 32 32 31 30 31 30 30 29 29 28 27 28 32 37 44
47 47 47 47 46 43 39 34 31 29 29 29 30 31 31 31 32 33 36 36 35 34 32 32 32 31 31 31 30 29 27 26 28 29 29 29 29 28 27 26 26 32 36
47 47 46 45 42 38 33 31 29 28 29 30 30 30 30 30 33 33 33 33 33 31 29 30 30 30 30 29 27 26 26 24 25 26 27 27 27 27 25 25 24 25 30
47 46 45 42 40 35 32 29 28 27 28 29 28 28 29 30 30 32 31 31 29 29 29 29 29 30 30 28 25 24 22 21 21 21 24 26 26 28 26 24 23 21 25
46 45 42 40 36 32 29 27 27 26 27 27 27 27 28 29 30 30 30 29 28 27 27 28 29 28 28 26 24 22 21 20 21 23 19 22 24 27 27 26 23 21 19
44 42 40 36 32 28 27 26 26 26 25 25 25 26 27 28 29 29 28 27 25 25 26 26 26 26 25 24 22 21 21 22 23 24 24 25 24 27 27 26 25 23 20
42 40 37 33 29 27 26 25 25 24 23 24 24 25 26 27 27 28 27 25 24 24 24 25 25 24 23 21 20 18 18 18 19 23 24 25 25 27 28 28 27 26 23
40 38 34 30 27 26 24 24 24 23 22 23 23 24 25 25 27 26 25 23 22 23 24 24 22 20 18 17 14 14 14 14 15 15 20 23 23 24 26 28 28 27 27
Wind_Direction
280 288 289 290 295 299 301 302 303 303 302 303 302 301 299 298 298 297 295 296 296 295 293 292 291 288 286 285 283 280 278 275 272 271 268 267 265 260 257 255 252 248 244
274 281 287 289 293 297 300 301 300 299 299 300 298 298 296 295 295 294 292 291 292 291 290 289 289 287 285 283 282 279 277 276 272 269 267 266 264 262 258 254 251 248 245
283 284 287 291 296 297 299 299 300 298 298 299 297 295 295 294 293 292 290 289 288 288 288 287 287 285 284 282 280 278 277 274 272 269 265 264 262 260 258 255 252 248 245
290 291 293 296 298 298 299 299 299 299 298 298 297 295 293 292 291 291 288 288 287 286 286 285 285 284 283 281 279 277 275 273 271 269 266 262 260 258 257 255 252 249 245
297 296 297 298 299 299 300 300 299 299 299 297 296 295 293 292 291 290 287 288 287 286 285 284 284 282 281 279 277 275 273 272 269 267 266 264 260 258 255 253 251 249 246
302 301 301 302 302 301 300 300 300 299 299 296 297 295 293 293 291 289 287 287 286 287 285 284 284 281 280 278 276 274 271 270 268 266 264 262 260 257 255 252 249 248 246
305 305 304 305 304 303 301 300 300 299 299 297 299 297 296 295 291 289 289 289 288 288 286 285 283 282 280 278 275 272 270 268 266 265 263 260 258 256 253 250 247 245 244
307 306 306 305 305 303 303 301 301 301 300 299 299 299 297 295 292 289 290 289 288 287 286 285 283 281 279 277 274 272 268 267 266 264 262 260 257 255 253 249 247 244 243
307 307 306 306 306 305 304 302 301 301 300 299 299 299 298 296 294 292 290 290 289 288 287 285 283 282 279 277 274 271 269 267 265 263 261 259 256 253 251 249 246 243 241
308 308 306 306 305 305 303 302 301 301 301 301 300 299 298 297 295 293 291 290 289 288 288 286 284 283 281 278 274 271 268 267 266 263 260 257 255 253 250 247 245 242 240
309 308 307 306 305 304 303 303 303 303 302 302 302 300 299 298 296 295 294 292 291 290 288 287 285 283 282 279 276 273 270 268 265 263 260 256 253 251 249 246 244 241 238
310 309 308 307 306 305 304 304 304 305 304 303 303 302 301 300 298 297 295 295 293 291 290 289 287 285 282 279 277 275 272 270 267 264 260 256 252 249 247 246 243 240 237
312 311 310 309 307 306 306 305 305 306 304 303 303 303 302 300 299 298 297 296 296 294 293 292 291 289 286 282 279 276 275 272 267 266 263 257 252 248 244 243 242 238 235
314 313 312 310 308 307 307 307 306 307 305 304 303 302 302 301 301 299 298 299 298 297 296 297 295 292 289 286 282 280 276 271 267 266 264 258 252 246 242 240 238 236 232
316 315 314 312 310 309 309 308 307 306 304 304 303 303 303 301 300 299 298 299 300 300 298 300 298 295 292 288 285 281 277 271 267 264 263 260 252 245 240 237 235 233 232
317 316 315 313 311 311 310 309 307 305 304 304 304 304 304 302 300 299 299 299 299 299 299 301 298 296 293 289 286 283 278 272 266 261 260 257 252 246 240 236 234 232 232
318 318 316 314 311 311 311 309 305 304 303 303 303 304 302 301 300 300 301 300 300 300 300 301 299 296 294 291 286 284 279 271 264 259 256 253 250 247 242 238 234 232 231
319 318 317 315 312 312 311 309 304 302 301 301 303 303 303 302 300 301 302 301 301 301 300 300 298 297 295 292 288 284 280 270 262 257 254 250 249 246 242 239 236 233 231
319 318 318 316 315 314 312 309 305 303 301 301 302 303 303 302 302 302 303 303 303 302 300 298 299 298 296 293 290 284 280 270 257 255 251 247 243 242 242 240 237 234 231
319 319 319 318 317 315 313 309 306 304 303 303 304 304 304 304 304 305 305 305 304 303 301 299 300 299 298 296 291 286 281 269 254 252 248 244 240 239 238 238 237 233 231
319 319 319 320 319 317 314 310 306 304 304 305 305 306 306 306 306 307 308 307 306 304 303 302 301 301 301 298 293 287 279 269 256 249 245 241 236 232 233 233 234 233 229
319 319 318 319 318 316 314 311 308 305 305 307 307 308 309 309 310 310 310 308 306 304 304 304 303 302 300 298 294 288 278 267 254 247 243 236 231 228 228 229 229 233 230
320 319 318 317 316 315 314 312 311 309 308 308 309 311 312 312 313 313 313 311 308 306 305 306 306 303 301 297 293 285 273 265 252 241 243 235 232 228 226 226 226 228 227
320 320 319 317 315 313 312 312 312 311 310 311 312 313 315 316 317 316 315 313 312 311 311 311 309 307 304 298 291 284 275 264 254 245 240 237 233 227 224 222 222 222 218
320 319 319 315 312 311 311 312 313 312 312 313 315 316 318 319 321 320 318 316 315 316 316 316 314 311 308 299 292 284 276 262 253 243 236 233 233 228 225 222 220 218 215
319 319 317 314 311 309 310 311 313 313 313 315 317 319 320 322 324 323 321 318 318 320 322 322 321 321 317 312 301 286 274 260 248 246 236 232 231 224 221 218 217 216 214